Location: Paris
(48.6709°N, 2.3750°E)
Time: 12:34:17
(UTC+02:00)

CUBESAT XI-V - Pass Details

Date: 26 June 2022
Orbit: 668 x 690 km, 98.1° (Epoch: 17 August)

Event Time Altitude Azimuth Distance (km) Brightness Sun altitude
Exits shadow 03:36:15 18° 173° (S) 1,626 ? -14.4°
Maximum altitude 03:39:38 74° 257° (WSW) 707 ? -14.1°
Drops below altitude 10° 03:44:16 10° 343° (NNW) 2,115 ? -13.8°
Sets 03:46:30 0° 345° (NNW) 3,031 ? -13.7°
